User: anonymous   Login
Location: *
(34.0486°S, 61.7880°E)
Time: 12:23:25
(UTC+00:00)
Language:

Cosmos 1892 Rocket - Orbit

View from above orbital plane
View from above orbital plane
View from above satellite
View from above satellite

Ground track
Ground track

The orbit data is extracted from the following two-line orbital elements,

1 18422U 87088B   20190.79732439 +.00000044 +00000-0 +24772-5 0  9999
2 18422 082.5105 209.5365 0019575 002.5128 170.4921 14.83036361746360
Epoch (UTC): 08 July 2020 19:08:08
Eccentricity: 0.0019575
inclination: 82.5105°
perigee height: 606 km
apogee height: 633 km
right ascension of ascending node: 209.5365°
argument of perigee: 2.5128°
revolutions per day: 14.83036361
mean anomaly at epoch: 170.4921°
orbit number at epoch: 74636

The dashed part of the orbit path shows where the satellite is in the earth's shadow,  

DLR